Location: Dappach
(48.9767°N, 9.6998°E)
Time: 21:51:24
(UTC+00:00)

COSMOS 2428 - Pass Details

Date: 14 August 2024
Orbit: 842 x 857 km, 70.9° (Epoch: 09 September)

Event Time Altitude Azimuth Distance (km) Brightness Sun altitude
Exits shadow 03:05:13 - 273° (W) 2,869 5.0 -10.4°
Reaches altitude 10° 03:06:44 10° 284° (WNW) 2,480 4.8 -10.2°
Maximum altitude 03:10:27 17° 325° (NW) 2,009 4.7 -9.7°
Drops below altitude 10° 03:14:11 10° 6° (N) 2,494 5.8 -9.2°
Sets 03:17:34 0° 25° (NNE) 3,436 7.0 -8.8°
